Погода в Калиновке

Украина / Запорожская область     47°07′18″N   34°37′30″E
темп.,
°C
ветер,
м/с
пор.,
м/с
влажн.,
%
обл.,
%
осадки,
мм/ч
давл.,
гПа
погр.,
м
22 апреля, чт
чт2200:00+7юз37905 0.0 1019138
03:00+7юз33923 0.0 102055
06:00+6ююз33935 0.0 102139
09:00+11ююз33735 0.0 1022471
12:00+15ююз33545 0.1 10221377
15:00+17юз344392 0.1 10212224
18:00+14юз3662100 0.3 1021150
21:00+10ююз49823 0.9 1022199
23 апреля, пт
пт2300:00+8юз38860 0.0 1022157
03:00+7ююз37890 0.0 1022117
06:00+7ю378815 0.0 1021132
09:00+13ююз6963100 0.0 1021613
12:00+16ююз784788 0.0 10201344
15:00+18ююз784220 0.0 10181943
18:00+16ююз6952100 0.0 1017799
21:00+12зюз4967100 0.0 1017395
24 апреля, сб
сб2400:00+9юз3682100 0.0 1017184
03:00+9ссз5790100 0.3 1016435
06:00+7ссз59844 0.4 1018574
09:00+10зсз57640 0.4 1019908
12:00+13зсз79425 0.0 10191979
15:00+14зсз91137100 0.0 10192772
18:00+10зсз812515 0.0 10201843
21:00+6зсз37515 0.0 1022152
25 апреля, вс
вс2500:00+5сз355881 0.0 102371
03:00+4зсз346259 0.0 102354
06:00+3зсз226541 0.0 102324
09:00+9з234620 0.0 1023699
12:00+11сз2335100 0.0 10221686
15:00+13сз223314 0.0 10211965
18:00+13ссз113586 0.0 10201924
21:00+7ююз4660100 0.0 1020114
26 апреля, пн
пн2600:00+5юз366315 0.0 1020105
03:00+5з336974 0.0 101949
06:00+5зюз346762 0.0 101962
09:00+10з5756100 0.0 1019873
12:00+8сз5679100 0.1 1019829
15:00+13зсз78375 0.1 10182229
18:00+12зсз573976 0.0 10182322
21:00+7з345327 0.0 101955